Location: Aciu?a
(46.2833°N, 22.4500°E)
Time: 05:47:33
(UTC+00:00)

ATLAS 5 CENTAUR R/B - Pass Details

Date: 25 October 2021
Orbit: 497 x 1159 km, 63.4° (Epoch: 25 November)

Event Time Altitude Azimuth Distance (km) Brightness Sun altitude
Rises 17:32:29 0° 279° (W) 2,706 6.4 -22.4°
Reaches altitude 10° 17:35:30 10° 305° (NW) 1,904 4.9 -22.9°
Maximum altitude 17:37:53 14° 340° (NNW) 1,710 4.1 -23.3°
Drops below altitude 10° 17:40:28 10° 14° (NNE) 2,090 4.2 -23.7°
Enters shadow 17:40:35 10° 15° (NNE) 2,117 4.2 -23.8°
